SWARM B

Last updated on Wed Jul 02 2025 00:03:30 GMT+0000 (Coordinated Universal Time)

1 39451U 13067A 25182.60176766 .00002734 00000+0 10694-3 0 9994 2 39451 87.7430 88.5708 0002699 83.9248 276.2307 15.25410156629744
UTC large
Height (km)
Speed (km/s)
/
Latitude / Longitude
Inclination (degrees)
Orbital Period (minutes)
Azimuth
Elevation
Range (km)
Doppler Factor

Next 0 passes for location: London (51.5072 / 0.1276)

Sorry there are no passes over London.